Wind_Speed
54 52 52 52 49 48 45 43 42 40 39 38 36 35 33 30 29 28 28 29 31 33 34 35 36 36 36 38 38 37 35 34 33 32 29 27 27 29 31 31 33 36 41 43
54 53 55 56 56 56 53 53 52 50 48 46 43 41 40 38 38 38 37 36 35 35 35 35 35 35 36 36 35 36 36 37 36 34 33 34 34 32 32 35 37 39 40 40
52 53 52 54 55 57 57 59 58 59 59 57 53 50 47 44 43 43 42 42 41 41 41 41 41 41 41 40 40 39 39 39 39 39 40 40 39 40 40 40 40 40 41 42
50 50 55 51 53 57 56 58 60 57 57 60 63 59 57 55 50 46 44 45 44 44 44 43 43 42 42 41 42 43 44 45 46 46 47 47 46 46 47 47 47 47 48 48
49 50 51 54 53 55 56 60 59 59 61 62 64 64 63 60 58 54 53 51 49 47 45 47 47 45 44 44 44 46 47 48 48 50 52 54 56 57 57 56 56 56 56 57
47 50 49 50 50 51 54 58 58 61 62 61 61 65 65 63 63 61 57 55 54 51 48 47 47 47 47 49 50 51 51 52 52 54 56 57 59 62 65 67 68 67 67 66
43 45 50 53 54 52 54 54 58 61 63 64 65 64 66 67 63 67 63 59 57 53 53 50 47 44 42 45 46 47 49 52 54 57 58 60 62 64 66 69 71 72 75 77
43 44 46 50 52 54 54 56 58 60 62 66 67 69 71 67 69 69 70 70 66 61 57 55 51 49 48 46 46 47 51 54 56 58 60 63 64 65 67 69 70 70 73 75
43 45 47 49 52 53 54 57 58 61 64 68 68 72 74 73 73 75 76 74 73 72 66 61 60 56 53 54 53 53 55 57 60 61 65 68 69 68 67 66 67 69 70 72
49 46 47 47 51 55 57 59 61 63 65 67 70 71 75 76 77 77 77 78 76 76 74 69 64 62 60 58 59 59 60 63 65 65 68 71 71 70 68 63 64 65 68 70
51 50 50 49 52 51 56 62 63 66 67 68 70 72 74 76 79 80 80 80 80 77 80 79 70 68 66 65 65 64 64 67 68 69 69 70 69 66 64 61 60 63 65 67
49 52 52 54 56 57 57 59 62 65 67 68 71 74 77 80 81 83 82 83 82 81 80 81 79 73 72 69 69 68 69 70 71 72 70 67 63 61 59 57 57 57 58 61
59 59 62 63 62 62 63 63 64 67 70 71 74 74 76 79 81 83 85 84 84 84 83 83 85 79 76 72 71 71 73 73 72 72 71 66 64 62 59 55 53 53 54 57
67 68 68 66 68 70 69 72 74 74 75 77 78 80 82 83 85 84 87 86 85 84 83 85 86 81 77 74 73 73 75 76 74 71 68 66 64 60 58 57 55 53 53 57
72 71 69 70 73 73 74 75 77 80 81 82 83 83 84 86 87 87 87 88 86 85 85 85 85 83 78 75 74 74 76 77 77 75 71 68 65 59 56 53 53 53 55 56
78 78 79 78 77 78 78 77 81 83 85 86 87 87 87 88 89 89 89 88 87 85 86 86 84 84 78 76 74 75 76 77 77 76 74 70 68 63 58 54 52 52 52 54
90 88 85 85 85 85 86 86 88 88 88 89 90 90 89 88 90 90 91 89 88 85 85 85 82 83 78 77 75 75 75 77 76 76 74 71 69 64 60 55 50 49 47 47
96 94 93 91 90 91 92 93 91 91 92 91 90 90 91 89 90 89 90 88 86 83 84 83 81 83 78 77 76 75 75 76 75 75 73 71 70 66 62 56 50 47 46 50
104 100 98 96 96 95 93 95 95 98 94 90 90 88 87 88 89 88 91 87 85 82 82 82 80 80 78 78 78 75 75 75 75 74 73 72 69 68 63 58 51 47 49 53
111 103 99 99 97 97 95 98 100 96 93 88 85 86 85 84 85 87 90 86 83 80 79 80 78 78 78 77 77 75 74 74 75 74 74 72 70 68 64 59 52 49 51 54
107 103 102 101 96 95 95 92 88 85 85 84 84 86 84 82 82 85 88 83 80 78 78 78 77 76 76 76 76 75 74 73 73 74 73 72 70 69 64 59 53 50 52 53
104 101 98 98 95 90 86 87 81 78 82 84 83 84 81 80 82 83 84 80 77 75 76 76 76 74 76 77 74 75 74 72 72 73 72 71 69 68 63 59 52 50 52 51
93 92 89 89 87 84 81 83 76 74 79 78 79 81 79 75 79 81 80 76 73 72 74 74 74 73 75 75 74 73 73 70 70 71 71 69 69 68 63 58 52 51 52 50
84 84 80 78 79 81 81 78 72 73 75 72 75 80 75 71 73 76 76 72 68 70 71 71 70 71 74 73 73 71 71 69 69 70 69 68 68 67 61 57 51 52 52 50
80 73 71 70 66 71 73 75 70 68 67 68 73 76 75 70 71 71 68 67 66 68 67 66 67 69 70 71 71 70 68 67 67 68 67 66 67 65 59 54 49 50 51 49
70 71 68 65 63 64 63 63 62 63 65 68 69 71 72 67 67 66 64 61 64 65 65 64 65 66 68 69 68 68 66 66 66 66 64 65 66 62 57 50 47 49 49 47
59 62 64 60 59 61 62 62 58 60 65 67 68 68 65 63 62 61 59 59 61 61 62 61 62 65 65 67 66 65 65 65 65 64 63 63 63 58 53 46 45 47 47 44
Wind_Direction
51 47 44 43 39 35 29 26 27 25 18 14 10 7 3 353 340 332 329 327 325 323 323 323 325 326 327 326 327 328 327 326 325 324 321 312 299 285 279 277 273 269 265 263
48 47 45 42 41 41 38 36 33 26 20 15 11 9 4 0 357 354 350 346 340 332 324 319 315 314 315 316 315 314 313 313 312 308 306 304 302 301 295 289 285 282 278 274
45 44 42 39 40 39 37 36 32 31 28 26 22 19 13 6 2 356 352 348 344 342 338 335 332 329 323 315 308 304 302 300 299 297 296 295 292 290 289 288 287 286 282 279
36 34 34 36 35 33 32 28 29 30 27 25 25 22 18 14 12 7 360 355 348 342 338 334 330 327 324 321 318 314 309 303 296 290 288 285 282 280 279 277 276 275 274 273
23 21 21 21 21 21 20 19 19 20 21 21 19 17 17 17 15 7 4 359 356 351 343 339 334 331 327 325 322 318 313 309 305 300 296 289 283 280 278 275 272 270 269 268
12 14 12 10 11 11 10 9 10 10 10 11 13 13 14 13 11 10 8 4 358 352 348 345 343 336 328 325 325 323 320 315 309 305 302 298 293 290 285 279 275 271 268 265
3 1 3 4 3 1 1 1 2 1 1 2 2 6 6 6 7 6 5 2 2 358 352 344 340 338 334 327 322 319 317 316 312 308 304 299 295 292 289 285 282 280 276 273
350 351 352 351 353 353 354 354 352 352 353 354 356 357 358 358 359 359 0 359 359 356 353 349 342 337 333 330 325 319 317 316 314 312 310 305 299 294 290 288 286 282 279 278
337 343 339 341 342 344 345 346 346 345 344 348 350 350 350 351 352 352 352 353 352 355 351 348 345 338 334 331 329 326 322 318 317 313 310 309 305 300 295 291 287 285 283 281
328 333 330 335 333 339 339 340 340 340 341 341 342 343 343 343 344 345 345 347 349 349 351 347 344 342 337 333 332 329 326 324 321 317 313 311 307 303 300 295 290 287 284 281
321 327 327 330 330 332 331 331 333 333 335 335 336 337 337 338 337 338 338 340 342 344 346 346 342 341 338 334 332 331 329 326 324 320 317 314 310 306 302 299 294 289 287 284
310 315 317 319 320 321 322 323 324 325 327 330 332 333 334 335 336 334 334 335 338 340 340 342 343 339 338 335 333 332 331 328 328 324 322 318 315 310 306 302 298 294 289 286
303 307 308 311 312 314 315 318 319 322 323 324 326 328 329 329 332 334 333 332 334 336 337 338 340 338 338 335 333 332 332 330 331 328 326 324 321 316 311 305 300 295 291 288
297 300 302 305 307 309 309 312 314 315 317 319 320 322 324 325 327 329 329 331 330 332 334 335 337 337 336 335 333 333 333 331 333 331 330 329 326 320 313 308 303 298 293 289
293 295 296 299 301 303 305 307 309 311 313 314 315 317 319 321 323 324 325 327 328 329 331 333 335 336 334 335 333 333 332 332 334 334 334 333 331 326 319 314 308 304 301 297
291 292 293 294 296 299 302 304 307 308 308 310 312 313 315 317 318 321 322 323 325 326 328 330 332 333 333 333 332 332 332 332 333 335 335 335 334 330 326 320 314 309 306 303
294 293 293 293 294 296 300 300 301 303 303 305 307 308 310 313 315 318 319 319 321 323 325 327 329 331 330 331 331 331 332 331 333 334 335 334 334 331 329 324 316 312 311 310
291 292 291 291 292 292 296 299 300 301 302 303 304 304 306 307 310 314 316 317 318 320 322 324 327 329 329 329 330 331 331 330 331 333 334 333 333 332 330 326 322 319 317 318
291 292 292 292 293 293 295 297 299 301 301 301 302 302 303 304 306 309 312 315 316 317 320 322 324 327 326 327 328 330 330 330 330 332 333 333 333 332 331 328 323 321 322 324
291 287 287 290 292 292 293 293 295 295 296 297 298 300 301 302 304 306 309 311 313 314 317 320 322 324 324 325 325 328 330 330 329 331 332 332 332 332 331 329 325 323 326 328
290 289 288 288 287 289 292 290 290 292 294 294 294 298 299 302 304 305 306 308 309 312 314 317 319 322 322 323 324 328 329 329 329 330 332 331 332 332 331 329 325 325 330 332
283 284 286 286 286 287 288 287 287 287 291 291 291 294 297 300 300 302 304 305 307 310 312 315 317 318 320 322 323 327 328 328 328 329 330 330 331 331 330 329 325 328 332 334
283 283 283 284 284 282 284 285 285 286 288 285 288 291 294 297 298 300 301 304 306 308 310 313 315 316 318 321 321 325 327 327 327 328 329 329 330 331 330 328 325 330 333 335
283 283 283 281 280 280 281 282 281 284 283 282 285 289 291 292 294 296 299 303 305 305 308 311 312 314 317 318 320 324 325 325 326 327 328 329 330 330 329 327 326 330 335 336
280 280 280 280 278 276 276 277 277 279 279 280 282 285 287 289 292 295 298 300 301 303 306 308 309 313 316 316 320 322 323 324 325 326 327 328 329 328 327 326 326 330 335 335
278 277 275 275 274 271 270 272 276 276 275 275 279 282 284 288 290 293 295 296 297 301 304 305 308 311 313 315 319 321 321 323 325 325 325 327 328 326 325 324 326 330 335 335
271 271 270 270 268 265 266 269 270 269 271 274 278 280 282 285 287 290 292 292 294 298 302 303 307 310 311 315 317 318 320 322 324 323 324 325 326 324 323 321 325 330 334 334
Height
10586 10584 10580 10577 10574 10571 10567 10564 10560 10557 10551 10547 10542 10536 10532 10526 10521 10517 10512 10507 10501 10495 10490 10485 10481 10476 10471 10466 10461 10457 10454 10450 10447 10444 10441 10437 10434 10432 10431 10429 10427 10426 10424 10421
10594 10592 10588 10584 10581 10576 10572 10568 10564 10558 10553 10548 10543 10537 10531 10526 10521 10515 10511 10505 10499 10493 10487 10481 10476 10471 10466 10461 10457 10452 10447 10443 10440 10437 10435 10432 10429 10425 10421 10418 10415 10412 10410 10409
10601 10597 10593 10589 10585 10582 10578 10573 10568 10562 10557 10551 10545 10538 10532 10527 10521 10515 10509 10503 10497 10490 10483 10477 10470 10465 10459 10454 10449 10444 10441 10437 10433 10429 10425 10422 10418 10415 10411 10408 10404 10401 10397 10395
10606 10602 10597 10595 10590 10586 10581 10575 10571 10565 10559 10553 10546 10539 10533 10526 10519 10513 10507 10501 10494 10487 10481 10474 10467 10460 10452 10446 10439 10434 10429 10425 10421 10418 10414 10410 10406 10402 10398 10396 10393 10389 10386 10382
10608 10604 10601 10595 10591 10587 10582 10577 10571 10565 10559 10553 10546 10539 10532 10526 10520 10512 10504 10496 10488 10481 10474 10468 10461 10454 10446 10440 10433 10426 10419 10413 10408 10403 10398 10393 10389 10386 10383 10379 10376 10372 10369 10365
10608 10606 10601 10597 10592 10587 10581 10574 10570 10564 10558 10552 10546 10539 10532 10524 10517 10510 10502 10494 10486 10478 10470 10461 10453 10444 10437 10429 10422 10416 10409 10402 10395 10389 10382 10377 10371 10366 10361 10357 10353 10350 10347 10345
10608 10603 10599 10595 10590 10585 10579 10575 10568 10561 10556 10550 10543 10537 10530 10523 10517 10508 10500 10491 10483 10474 10466 10457 10448 10440 10431 10422 10414 10406 10399 10391 10383 10375 10368 10361 10354 10348 10341 10335 10330 10326 10322 10321
10606 10601 10597 10590 10586 10581 10576 10570 10565 10560 10554 10547 10539 10532 10525 10519 10510 10502 10495 10486 10476 10467 10458 10449 10440 10431 10422 10413 10404 10394 10385 10376 10367 10359 10350 10342 10333 10326 10319 10312 10306 10301 10297 10293
10603 10600 10594 10589 10583 10578 10573 10568 10562 10554 10547 10540 10532 10525 10518 10510 10503 10494 10486 10478 10469 10460 10449 10439 10430 10420 10409 10399 10389 10380 10370 10360 10350 10339 10329 10319 10310 10302 10294 10288 10282 10276 10272 10267
10597 10596 10590 10587 10579 10574 10568 10560 10554 10548 10542 10535 10528 10521 10512 10504 10496 10489 10480 10471 10462 10452 10441 10430 10418 10408 10397 10385 10374 10364 10353 10341 10330 10319 10308 10296 10285 10276 10268 10263 10257 10251 10246 10241
10590 10587 10583 10579 10573 10569 10562 10556 10548 10542 10535 10527 10520 10513 10505 10497 10488 10479 10471 10461 10451 10441 10430 10418 10407 10395 10384 10372 10360 10348 10337 10325 10313 10300 10287 10275 10262 10252 10244 10238 10232 10225 10220 10215
10584 10580 10574 10571 10564 10558 10554 10549 10543 10535 10527 10520 10512 10504 10496 10487 10479 10469 10459 10450 10440 10429 10418 10407 10396 10383 10370 10358 10346 10334 10322 10309 10296 10281 10268 10255 10242 10231 10225 10217 10210 10205 10199 10193
10574 10570 10566 10561 10555 10550 10542 10538 10531 10524 10517 10510 10504 10496 10487 10477 10469 10458 10447 10437 10427 10417 10406 10395 10384 10371 10358 10346 10333 10320 10307 10293 10280 10265 10250 10236 10223 10212 10202 10197 10192 10185 10180 10174
10559 10557 10551 10548 10542 10537 10532 10525 10519 10513 10506 10498 10490 10483 10474 10464 10455 10446 10435 10426 10415 10405 10394 10382 10371 10358 10346 10332 10320 10306 10293 10278 10265 10251 10236 10222 10208 10195 10184 10175 10169 10166 10161 10153
10548 10543 10538 10533 10527 10523 10516 10511 10504 10497 10491 10484 10476 10468 10460 10450 10440 10431 10422 10412 10403 10392 10381 10370 10358 10345 10332 10319 10306 10293 10280 10265 10250 10236 10222 10208 10195 10183 10171 10161 10152 10144 10137 10131
10527 10524 10521 10515 10511 10505 10500 10495 10489 10482 10474 10466 10460 10452 10444 10435 10426 10417 10407 10398 10389 10378 10368 10357 10345 10333 10319 10307 10294 10281 10267 10252 10239 10225 10210 10196 10182 10170 10159 10149 10139 10130 10122 10113
10506 10501 10500 10495 10490 10486 10481 10476 10470 10464 10456 10449 10441 10434 10427 10419 10410 10402 10390 10382 10373 10363 10353 10343 10332 10320 10307 10294 10281 10269 10256 10241 10228 10213 10199 10185 10172 10160 10149 10138 10127 10118 10110 10101
10482 10479 10475 10471 10467 10463 10459 10454 10449 10442 10436 10430 10423 10415 10409 10401 10393 10385 10375 10366 10358 10348 10338 10328 10318 10306 10293 10280 10268 10256 10243 10229 10216 10202 10188 10175 10162 10149 10137 10126 10115 10105 10097 10088
10453 10450 10448 10445 10442 10439 10435 10431 10426 10421 10416 10410 10403 10396 10389 10383 10376 10368 10357 10350 10342 10333 10323 10313 10304 10293 10280 10267 10255 10244 10231 10217 10203 10190 10176 10163 10150 10137 10125 10114 10104 10095 10086 10075
10424 10421 10419 10417 10415 10412 10410 10406 10401 10398 10394 10388 10382 10375 10369 10364 10359 10350 10340 10333 10327 10317 10308 10298 10288 10279 10266 10254 10242 10231 10218 10205 10190 10178 10164 10151 10138 10125 10114 10103 10093 10084 10074 10063
10393 10392 10390 10388 10386 10385 10383 10379 10376 10373 10369 10364 10358 10353 10348 10344 10339 10331 10323 10316 10309 10302 10292 10283 10273 10263 10252 10241 10229 10218 10206 10192 10178 10165 10152 10139 10127 10115 10103 10093 10083 10074 10064 10053
10363 10362 10362 10359 10357 10356 10354 10352 10351 10349 10344 10340 10336 10331 10328 10325 10318 10312 10303 10297 10291 10286 10276 10268 10258 10249 10237 10226 10214 10204 10193 10179 10166 10154 10142 10129 10117 10105 10094 10083 10073 10064 10054 10044
10336 10334 10334 10333 10330 10328 10327 10327 10327 10324 10321 10318 10314 10309 10307 10304 10298 10292 10284 10280 10274 10268 10260 10252 10243 10233 10223 10212 10201 10191 10181 10168 10156 10143 10131 10118 10106 10094 10084 10074 10063 10054 10045 10036
10303 10301 10302 10302 10303 10303 10299 10300 10302 10300 10297 10295 10291 10287 10286 10284 10278 10272 10266 10263 10259 10250 10243 10236 10227 10219 10208 10198 10188 10179 10168 10156 10144 10132 10121 10108 10096 10085 10075 10065 10055 10046 10037 10027
10273 10273 10273 10274 10275 10272 10271 10273 10278 10276 10276 10272 10269 10264 10262 10262 10259 10254 10250 10246 10240 10233 10227 10220 10212 10203 10194 10184 10176 10167 10156 10144 10133 10122 10111 10099 10087 10076 10067 10058 10048 10040 10031 10022
10246 10245 10246 10248 10249 10247 10247 10250 10253 10253 10252 10248 10247 10244 10240 10241 10239 10236 10233 10229 10222 10216 10210 10204 10196 10187 10179 10171 10163 10153 10143 10132 10122 10111 10100 10089 10078 10068 10059 10051 10042 10033 10025 10016
10221 10220 10219 10223 10222 10222 10225 10228 10230 10228 10225 10226 10225 10224 10223 10221 10220 10218 10215 10210 10204 10199 10193 10187 10180 10172 10164 10157 10149 10140 10130 10120 10110 10100 10089 10079 10069 10060 10052 10044 10037 10028 10020 10012